GW6475 Weather Reports


Display with metric or nautical units.
time (UTC)temp
F
wind
direction
speed
MPH
gust
MPH
rain 1hr
in
rain 24hr
in
rain mn
in
humidity
%
barometer
mb
20260506051046 61 38 0.0 0.0 0.00 0.00 0.00 49 1015.8
20260506050544 61 38 0.0 0.0 0.00 0.00 0.00 48 1015.7
20260506045034 62 35 0.0 0.0 0.00 0.00 0.00 48 1015.7
20260506044532 62 42 0.0 0.0 0.00 0.00 0.00 49 1015.7
20260506044029 63 39 0.0 0.0 0.00 0.00 0.00 51 1015.6
20260506043526 64 39 0.0 0.0 0.00 0.00 0.00 51 1015.5
20260506043024 64 39 0.0 0.0 0.00 0.00 0.00 50 1015.3
20260506042523 65 35 0.0 0.0 0.00 0.00 0.00 49 1015.7
20260506042021 65 34 0.0 0.0 0.00 0.00 0.00 49 1015.3
20260506041519 66 35 0.0 1.0 0.00 0.00 0.00 48 1015.3
20260506041015 65 36 0.0 0.0 0.00 0.00 0.00 48 1015.3
20260506040513 65 32 0.0 1.0 0.00 0.00 0.00 48 1015.3
20260506040009 66 41 0.0 0.0 0.00 0.00 0.00 48 1015.1
20260506035506 66 35 0.0 1.0 0.00 0.00 0.00 48 1015.1
20260506035002 66 37 0.0 1.0 0.00 0.00 0.00 47 1015.2
20260506034500 66 36 0.0 2.0 0.00 0.00 0.00 47 1015.1
20260506033957 67 33 0.0 1.0 0.00 0.00 0.00 47 1015.1
20260506033454 67 37 0.0 1.0 0.00 0.00 0.00 47 1014.8
20260506032951 67 36 0.0 1.0 0.00 0.00 0.00 46 1014.7
20260506032448 68 33 1.0 1.0 0.00 0.00 0.00 45 1015.0
20260506031944 68 35 0.0 4.0 0.00 0.00 0.00 45 1014.8
20260506031442 68 33 1.0 3.0 0.00 0.00 0.00 44 1014.8
20260506030940 68 36 0.0 1.0 0.00 0.00 0.00 44 1014.7
20260506030437 69 35 1.0 2.0 0.00 0.00 0.00 44 1014.6
20260506025934 69 356 1.0 2.0 0.00 0.00 0.00 43 1014.5
20260506025431 69 36 1.0 3.0 0.00 0.00 0.00 43 1014.6
20260506024928 70 47 1.0 2.0 0.00 0.00 0.00 43 1014.5
20260506024425 70 15 2.0 3.0 0.00 0.00 0.00 43 1014.3
20260506023920 70 29 2.0 4.0 0.00 0.00 0.00 42 1014.3
20260506023418 70 2 3.0 4.0 0.00 0.00 0.00 42 1014.3
20260506022914 70 25 1.0 4.0 0.00 0.00 0.00 42 1014.3
20260506022412 70 29 2.0 2.0 0.00 0.00 0.00 41 1014.3
20260506021910 71 11 2.0 4.0 0.00 0.00 0.00 41 1014.2
20260506021407 71 30 2.0 4.0 0.00 0.00 0.00 41 1014.2
20260506020903 71 36 1.0 3.0 0.00 0.00 0.00 41 1013.9
20260506020402 71 23 2.0 6.0 0.00 0.00 0.00 40 1014.0
20260506015858 71 27 2.0 7.0 0.00 0.00 0.00 40 1014.2
20260506015356 72 22 2.0 8.0 0.00 0.00 0.00 40 1014.3
20260506014853 72 46 4.0 7.0 0.00 0.00 0.00 40 1014.2
20260506014349 73 4 2.0 7.0 0.00 0.00 0.00 39 1013.9
20260506013846 73 31 4.0 4.0 0.00 0.00 0.00 39 1014.1
20260506013344 73 8 2.0 7.0 0.00 0.00 0.00 40 1014.0
20260506012840 73 24 3.0 4.0 0.00 0.00 0.00 39 1013.9
20260506012337 73 30 1.0 6.0 0.00 0.00 0.00 39 1013.9
20260506011834 75 14 6.0 8.0 0.00 0.00 0.00 37 1013.9
20260506011331 75 349 5.0 7.0 0.00 0.00 0.00 36 1013.8
20260506010828 75 29 1.0 4.0 0.00 0.00 0.00 35 1013.9
20260506010326 75 6 4.0 9.0 0.00 0.00 0.00 34 1013.8
20260506005823 75 30 3.0 4.0 0.00 0.00 0.00 34 1013.7
20260506005320 75 28 3.0 6.0 0.00 0.00 0.00 34 1013.6
20260506004815 76 4 2.0 6.0 0.00 0.00 0.00 34 1013.6
20260506004313 76 22 2.0 3.0 0.00 0.00 0.00 33 1013.6
20260506003809 76 353 2.0 6.0 0.00 0.00 0.00 33 1013.5
20260506003306 76 41 3.0 4.0 0.00 0.00 0.00 33 1013.6
20260506002802 76 358 4.0 7.0 0.00 0.00 0.00 32 1013.3
20260506002258 75 30 2.0 3.0 0.00 0.00 0.00 32 1013.2
20260506001754 75 12 2.0 2.0 0.00 0.00 0.00 33 1013.5
20260506001252 75 42 0.0 6.0 0.00 0.00 0.00 33 1013.2
20260506000748 76 35 3.0 6.0 0.00 0.00 0.00 32 1013.5
20260506000247 76 12 3.0 4.0 0.00 0.00 0.00 32 1013.3
20260505235743 76 39 1.0 2.0 0.00 0.00 0.00 32 1013.5
20260505235241 77 0 6.0 8.0 0.00 0.00 0.00 31 1013.5
20260505234737 77 47 1.0 3.0 0.00 0.00 0.00 31 1013.5
20260505234235 78 4 2.0 6.0 0.00 0.00 0.00 30 1013.3
20260505233731 78 36 1.0 4.0 0.00 0.00 0.00 31 1013.5
20260505233230 78 25 2.0 4.0 0.00 0.00 0.00 30 1013.2
20260505232726 77 351 5.0 7.0 0.00 0.00 0.00 31 1013.3
20260505232224 77 6 1.0 7.0 0.00 0.00 0.00 31 1013.5
20260505231720 77 36 0.0 4.0 0.00 0.00 0.00 31 1013.5
20260505231219 77 353 0.0 4.0 0.00 0.00 0.00 31 1013.3
20260505230717 77 34 1.0 7.0 0.00 0.00 0.00 31 1013.5
20260505230213 77 357 2.0 6.0 0.00 0.00 0.00 31 1013.6
20260505225710 77 26 4.0 7.0 0.00 0.00 0.00 30 1013.7
20260505225207 77 3 2.0 7.0 0.00 0.00 0.00 30 1013.6
20260505224702 78 49 0.0 1.0 0.00 0.00 0.00 30 1013.6
20260505224200 78 42 1.0 4.0 0.00 0.00 0.00 31 1013.7
20260505223658 78 335 3.0 4.0 0.00 0.00 0.00 30 1013.6
20260505223153 78 49 2.0 2.0 0.00 0.00 0.00 30 1013.6
20260505222649 78 19 2.0 4.0 0.00 0.00 0.00 30 1013.5
20260505222146 78 306 1.0 3.0 0.00 0.00 0.00 29 1013.6
20260505221643 78 4 5.0 7.0 0.00 0.00 0.00 29 1013.7
20260505221139 78 24 1.0 2.0 0.00 0.00 0.00 30 1013.6
20260505220637 78 30 0.0 0.0 0.00 0.00 0.00 30 1013.6
20260505220134 79 22 4.0 7.0 0.00 0.00 0.00 29 1013.7
20260505215632 79 26 1.0 7.0 0.00 0.00 0.00 29 1013.9
20260505215130 79 60 0.0 3.0 0.00 0.00 0.00 29 1013.8
20260505214628 80 7 3.0 6.0 0.00 0.00 0.00 28 1013.7
20260505214125 79 337 0.0 4.0 0.00 0.00 0.00 29 1013.8
20260505213622 78 14 0.0 8.0 0.00 0.00 0.00 29 1013.8
20260505213118 79 29 3.0 4.0 0.00 0.00 0.00 28 1013.9
20260505212615 79 38 0.0 4.0 0.00 0.00 0.00 29 1013.9
20260505212113 78 22 2.0 2.0 0.00 0.00 0.00 29 1013.8
20260505211609 79 6 3.0 4.0 0.00 0.00 0.00 29 1013.8
20260505211107 79 30 0.0 1.0 0.00 0.00 0.00 29 1013.8
20260505210603 78 25 1.0 1.0 0.00 0.00 0.00 30 1013.9
20260505210100 78 34 0.0 2.0 0.00 0.00 0.00 29 1013.9
20260505205557 78 3 0.0 4.0 0.00 0.00 0.00 30 1013.9
20260505205055 78 39 0.0 1.0 0.00 0.00 0.00 31 1014.0
20260505204552 77 20 1.0 2.0 0.00 0.00 0.00 30 1013.9
20260505204049 78 34 1.0 7.0 0.00 0.00 0.00 30 1013.9
20260505203546 78 36 2.0 3.0 0.00 0.00 0.00 30 1014.0
20260505203043 77 33 0.0 1.0 0.00 0.00 0.00 30 1014.0
20260505202539 78 36 0.0 3.0 0.00 0.00 0.00 31 1014.1
20260505202035 78 46 1.0 2.0 0.00 0.00 0.00 31 1014.0
20260505201532 77 25 1.0 2.0 0.00 0.00 0.00 32 1014.0
20260505201030 77 39 1.0 3.0 0.00 0.00 0.00 32 1014.0
20260505200527 77 21 0.0 4.0 0.00 0.00 0.00 33 1014.1
20260505200024 77 15 1.0 2.0 0.00 0.00 0.00 33 1014.0
20260505195520 77 25 3.0 6.0 0.00 0.00 0.00 33 1014.2
20260505195018 76 10 4.0 7.0 0.00 0.00 0.00 33 1014.1
20260505194515 76 32 0.0 2.0 0.00 0.00 0.00 34 1014.2
20260505194010 76 47 0.0 1.0 0.00 0.00 0.00 34 1014.1
20260505193508 76 31 0.0 1.0 0.00 0.00 0.00 34 1014.1
20260505193004 75 35 0.0 3.0 0.00 0.00 0.00 34 1014.2
20260505192503 75 36 2.0 3.0 0.00 0.00 0.00 35 1014.2
20260505192000 75 8 2.0 3.0 0.00 0.00 0.00 35 1014.3
20260505191459 75 36 0.0 0.0 0.00 0.00 0.00 36 1014.2
20260505190956 75 13 0.0 2.0 0.00 0.00 0.00 37 1014.3
20260505190450 74 33 2.0 4.0 0.00 0.00 0.00 36 1014.2
20260505185946 73 3 1.0 6.0 0.00 0.00 0.00 37 1014.2
20260505185444 73 67 0.0 3.0 0.00 0.00 0.00 36 1014.1
20260505184940 72 34 1.0 2.0 0.00 0.00 0.00 38 1014.3
20260505184437 71 37 1.0 2.0 0.00 0.00 0.00 37 1014.3
20260505183933 71 328 2.0 4.0 0.00 0.00 0.00 38 1014.3
20260505183430 71 20 1.0 3.0 0.00 0.00 0.00 39 1014.5
20260505182927 70 36 0.0 1.0 0.00 0.00 0.00 41 1014.5
20260505182424 69 39 0.0 0.0 0.00 0.00 0.00 41 1014.5
20260505181920 69 25 1.0 3.0 0.00 0.00 0.00 40 1014.6
20260505181418 69 42 0.0 2.0 0.00 0.00 0.00 41 1014.5
20260505180914 68 41 0.0 3.0 0.00 0.00 0.00 41 1014.3
20260505180411 68 15 2.0 3.0 0.00 0.00 0.00 41 1014.6
20260505175907 68 33 1.0 2.0 0.00 0.00 0.00 42 1014.3
20260505175404 67 34 0.0 0.0 0.00 0.00 0.00 43 1014.7
20260505174900 67 24 0.0 3.0 0.00 0.00 0.00 44 1014.6
20260505174358 66 40 0.0 0.0 0.00 0.00 0.00 46 1014.5
20260505173854 65 42 0.0 1.0 0.00 0.00 0.00 46 1014.7
20260505173350 65 28 1.0 1.0 0.00 0.00 0.00 45 1014.5
20260505172847 65 58 1.0 1.0 0.00 0.00 0.00 44 1014.3
20260505172345 64 34 0.0 1.0 0.00 0.00 0.00 46 1014.5
20260505171844 64 34 1.0 1.0 0.00 0.00 0.00 46 1014.5
20260505171342 63 241 1.0 1.0 0.00 0.00 0.00 47 1014.5
20260505170838 63 36 1.0 2.0 0.00 0.00 0.00 46 1014.5
20260505170335 62 39 0.0 1.0 0.00 0.00 0.00 47 1014.6
20260505165830 62 31 0.0 0.0 0.00 0.00 0.00 47 1014.5
20260505165326 62 38 0.0 0.0 0.00 0.00 0.00 50 1014.5
20260505164822 61 33 0.0 2.0 0.00 0.00 0.00 49 1014.6
20260505164319 60 33 0.0 0.0 0.00 0.00 0.00 50 1014.6
20260505163817 60 32 0.0 1.0 0.00 0.00 0.00 51 1014.7
20260505163316 60 18 1.0 3.0 0.00 0.00 0.00 51 1014.6
20260505162814 59 4 2.0 2.0 0.00 0.00 0.00 53 1014.3
20260505162309 59 22 1.0 1.0 0.00 0.00 0.00 54 1014.3
20260505161807 58 39 0.0 0.0 0.00 0.00 0.00 59 1014.7
20260505161304 57 42 0.0 0.0 0.00 0.00 0.00 58 1014.6
20260505160801 56 36 0.0 0.0 0.00 0.00 0.00 62 1014.5
20260505160259 55 34 0.0 0.0 0.00 0.00 0.00 62 1014.5
20260505153239 52 29 0.0 0.0 0.00 0.00 0.00 68 1014.7
20260505152736 52 40 0.0 0.0 0.00 0.00 0.00 69 1014.7
20260505152232 51 40 0.0 0.0 0.00 0.00 0.00 69 1014.5
20260505151731 51 274 0.0 1.0 0.00 0.00 0.00 69 1014.6
20260505151229 50 39 0.0 0.0 0.00 0.00 0.00 70 1014.6
20260505150726 50 42 0.0 0.0 0.00 0.00 0.00 70 1014.6
20260505150223 50 33 0.0 1.0 0.00 0.00 0.00 71 1014.5
20260505140154 48 255 2.0 2.0 0.00 0.00 0.00 72 1013.7
20260505130118 46 35 0.0 0.0 0.00 0.00 0.00 74 1013.3
20260505124607 47 31 0.0 0.0 0.00 0.00 0.00 74 1013.3
20260505124103 47 187 1.0 1.0 0.00 0.00 0.00 74 1013.2
20260505123559 47 34 0.0 0.0 0.00 0.00 0.00 74 1013.3
20260505123056 47 44 0.0 1.0 0.00 0.00 0.00 74 1013.2
20260505122553 47 37 0.0 0.0 0.00 0.00 0.00 74 1013.0
20260505122050 47 30 0.0 1.0 0.00 0.00 0.00 74 1012.9
20260505121546 47 28 0.0 0.0 0.00 0.00 0.00 74 1013.2
20260505121043 47 25 0.0 0.0 0.00 0.00 0.00 74 1013.0
20260505120540 47 41 0.0 0.0 0.00 0.00 0.00 74 1012.8
20260505120035 47 24 0.0 1.0 0.00 0.00 0.00 74 1013.0
20260505115530 47 30 0.0 0.0 0.00 0.00 0.00 74 1012.9
20260505115028 48 44 0.0 0.0 0.00 0.00 0.00 74 1013.0
20260505114525 48 39 0.0 0.0 0.00 0.00 0.00 74 1013.0
20260505114021 48 33 0.0 1.0 0.00 0.00 0.00 74 1012.9
20260505113518 48 37 0.0 1.0 0.00 0.00 0.00 74 1013.0
20260505113014 48 37 0.0 1.0 0.00 0.00 0.00 74 1012.9
20260505112510 48 35 0.0 0.0 0.00 0.00 0.00 74 1012.9
20260505112009 48 42 0.0 0.0 0.00 0.00 0.00 74 1013.1
20260505111508 48 28 0.0 0.0 0.00 0.00 0.00 74 1013.1
20260505111004 49 36 0.0 0.0 0.00 0.00 0.00 74 1012.9
20260505110501 49 359 0.0 0.0 0.00 0.00 0.00 74 1013.0
20260505101933 50 37 0.0 0.0 0.00 0.00 0.00 72 1012.9
20260505101432 50 31 0.0 0.0 0.00 0.00 0.00 71 1012.9
20260505100928 50 39 0.0 0.0 0.00 0.00 0.00 71 1012.6
20260505100425 50 68 0.0 1.0 0.00 0.00 0.00 70 1012.8
20260505095921 50 32 0.0 0.0 0.00 0.00 0.00 70 1012.8
20260505095418 50 55 0.0 0.0 0.00 0.00 0.00 70 1012.8
20260505094914 50 34 0.0 0.0 0.00 0.00 0.00 70 1012.7
20260505094411 50 37 0.0 0.0 0.00 0.00 0.00 70 1012.7
20260505093907 50 33 0.0 0.0 0.00 0.00 0.00 70 1012.7
20260505093404 50 34 0.0 0.0 0.00 0.00 0.00 70 1012.8
20260505092901 50 27 0.0 0.0 0.00 0.00 0.00 69 1012.7
20260505092359 50 37 0.0 0.0 0.00 0.00 0.00 69 1012.8
20260505091856 50 40 0.0 0.0 0.00 0.00 0.00 69 1012.7
20260505091354 50 38 0.0 1.0 0.00 0.00 0.00 69 1012.5
20260505090852 50 35 0.0 0.0 0.00 0.00 0.00 68 1012.8
20260505090350 50 40 0.0 0.0 0.00 0.00 0.00 68 1012.7
20260505085847 50 37 0.0 0.0 0.00 0.00 0.00 68 1012.3
20260505085345 50 37 0.0 0.0 0.00 0.00 0.00 68 1012.8
20260505084842 50 35 0.0 0.0 0.00 0.00 0.00 66 1012.6
20260505084341 50 44 0.0 0.0 0.00 0.00 0.00 66 1012.6
20260505083838 50 39 0.0 0.0 0.00 0.00 0.00 66 1012.8
20260505083335 50 37 0.0 0.0 0.00 0.00 0.00 66 1012.6
20260505082831 50 37 0.0 0.0 0.00 0.00 0.00 65 1012.9
20260505082328 50 40 0.0 0.0 0.00 0.00 0.00 64 1012.7
20260505081824 50 40 0.0 0.0 0.00 0.00 0.00 64 1012.9
20260505081321 50 42 0.0 0.0 0.00 0.00 0.00 64 1012.8
20260505080818 50 42 0.0 0.0 0.00 0.00 0.00 63 1012.8
20260505080314 50 40 0.0 0.0 0.00 0.00 0.00 64 1012.5
20260505075809 50 39 0.0 0.0 0.00 0.00 0.00 64 1012.7
20260505075307 50 39 0.0 0.0 0.00 0.00 0.00 64 1012.6
20260505074804 50 40 0.0 0.0 0.00 0.00 0.00 64 1012.6
20260505074301 51 39 0.0 0.0 0.00 0.00 0.00 63 1012.7
20260505073758 51 39 0.0 0.0 0.00 0.00 0.00 62 1012.7
20260505073256 51 39 0.0 0.0 0.00 0.00 0.00 62 1012.8
20260505072753 52 39 0.0 0.0 0.00 0.00 0.00 61 1012.7
20260505072249 52 39 0.0 0.0 0.00 0.00 0.00 60 1012.7
20260505071745 52 42 0.0 0.0 0.00 0.00 0.00 60 1012.8
20260505071241 53 42 0.0 0.0 0.00 0.00 0.00 59 1012.6
20260505070739 53 42 0.0 0.0 0.00 0.00 0.00 59 1012.6
20260505070235 53 42 0.0 0.0 0.00 0.00 0.00 58 1012.6
20260505065731 54 38 0.0 0.0 0.00 0.00 0.00 57 1012.3
20260505065228 54 40 0.0 0.0 0.00 0.00 0.00 56 1012.5
20260505064725 55 37 0.0 0.0 0.00 0.00 0.00 55 1012.5
20260505064223 56 33 0.0 0.0 0.00 0.00 0.00 54 1012.2
20260505063720 56 46 0.0 0.0 0.00 0.00 0.00 53 1012.2
20260505063216 57 46 0.0 0.0 0.00 0.00 0.00 53 1012.0
20260505062713 57 39 0.0 0.0 0.00 0.00 0.00 52 1012.0
20260505062211 57 17 1.0 2.0 0.00 0.00 0.00 51 1011.9
20260505061707 58 36 0.0 0.0 0.00 0.00 0.00 50 1012.1
20260505061206 58 33 0.0 2.0 0.00 0.00 0.00 50 1011.9
20260505060702 58 30 0.0 1.0 0.00 0.00 0.00 49 1011.9
20260505060159 59 25 1.0 2.0 0.00 0.00 0.00 48 1012.0
20260505055654 59 18 0.0 2.0 0.00 0.00 0.00 48 1012.1